Regional Weather Roundup
Issued by NWS

Home | Current Version | Previous Version | Graphics & Text | Print | Product List | Glossary On
Versions: 1 2 3 4 5 6 7 8 9 10 11 12 13 14 15 16 17 18 19 20 21 22 23 24 25 26 27 28 29 30 31 32 33 34 35 36 37 38 39 40 41 42 43 44 45 46 47 48 49 50
000
ASUS43 KIND 300609
RWRIN

WEATHER ROUNDUP FOR INDIANA
NATIONAL WEATHER SERVICE INDIANAPOLIS IN
200 AM EDT THU JUL 30 2015

NOTE: "FAIR" INDICATES FEW OR NO CLOUDS BELOW 12,000 FEET WITH NO
SIGNIFICANT WEATHER AND/OR OBSTRUCTIONS TO VISIBILITY.

* - STATION DOES NOT REPORT WEATHER SUCH AS PRECIPITATION OR FOG.

+ - STATION NOT QUALITY CONTROLLED BY THE NATIONAL WEATHER SERVICE.
    USE DATA WITH CAUTION...ESPECIALLY DEWPOINT AND RELATIVE
    HUMIDITY OBSERVATIONS.

INZ001>003-010>013-019-020-300700-
NORTHWEST INDIANA

CITY           SKY/WX    TMP DP  RH WIND       PRES   REMARKS
GARY /AIRPORT/ CLEAR     72  59  63 W6        30.03F
KNOX *+        PTCLDY    64  55  72 W6        30.01S
LA PORTE +     PTCLDY    67  58  72 W6        30.02F
6HR MIN TEMP:  67; 6HR MAX TEMP:  81;

MICHIGAN CITY+ CLEAR     64  55  72 SW5       30.02S
MONTICELLO +   CLEAR     66  62  86 W5        30.03S
6HR MIN TEMP:  65; 6HR MAX TEMP:  81;

RENSSELAER +   CLEAR     66  61  82 W6        30.04F
VALPARAISO     PTCLDY    66  58  75 W9        30.03S
6HR MIN TEMP:  65; 6HR MAX TEMP:  83;


$$

LMZ046-743>745-300700-
SOUTHERN LAKE MICHIGAN

STATION/POSITION TIME  TEMP    WIND        PRES    WAVE
                       AIR SEA DIR/SP/G            HT
                 (UTC) (F)     (DEG/KT/KT) (MB)    (FT)
BURNS HARBOR     0500   74     250/ 10/ 11 1016.9R
MICHIGAN CITY    0500   75     220/ 16/ 18   N/A
5NW MICH CITY    0600   75 74  280/ 12/ 16   N/A     3

$$

INZ004-005-014>016-021>024-300700-
NORTH CENTRAL INDIANA

CITY           SKY/WX    TMP DP  RH WIND       PRES   REMARKS
GOSHEN         CLEAR     65  59  81 W6        30.00F
6HR MIN TEMP:  63; 6HR MAX TEMP:  79; 6HR PCP: TRACE;

LOGANSPORT +   CLEAR     61  54  77 W3        30.04S
PERU/GRISSOM   PTCLDY    64  59  82 W5        30.02F
6HR MIN TEMP:  64; 6HR MAX TEMP:  84;

ROCHESTER +    PTCLDY    68  61  77 W5        30.02F
SOUTH BEND     PTCLDY    66  59  78 W5        30.01S
6HR MIN TEMP:  66; 6HR MAX TEMP:  81;

WARSAW +       PTCLDY    66  57  72 W8        30.01S

$$

INZ006>009-017-018-025>027-300700-
NORTHEAST INDIANA

CITY           SKY/WX    TMP DP  RH WIND       PRES   REMARKS
ANGOLA *+      CLEAR     66  57  72 CALM      29.99F
AUBURN +       PTCLDY    66  55  68 CALM      30.00F
FORT WAYNE     MOCLDY    65  60  84 SW5       30.01F
6HR MIN TEMP:  65; 6HR MAX TEMP:  83;

HUNTINGTON +   MOCLDY    67  61  81 W3        30.01F
6HR MIN TEMP:  67; 6HR MAX TEMP:  82;


$$

INZ028-029-035-036-043>045-051>053-300700-
WEST CENTRAL INDIANA

CITY           SKY/WX    TMP DP  RH WIND       PRES   REMARKS
CRAWFORDSVL +  PTCLDY    62  60  91 W3          N/A
6HR MIN TEMP:  62; 6HR MAX TEMP:  77; 6HR PCP:  0.01;

GREENCASTLE +  PTCLDY    68  55  64 W3        30.07S
LAFAYETTE      CLEAR     64  61  90 CALM      30.04S
6HR MIN TEMP:  63; 6HR MAX TEMP:  79;

TERRE HAUTE    CLEAR     69  59  70 N5        30.06S
6HR MIN TEMP:  68; 6HR MAX TEMP:  83;


$$

INZ030>032-037>040-046>048-054>057-064-065-300700-
CENTRAL INDIANA

CITY           SKY/WX    TMP DP  RH WIND       PRES   REMARKS
FISHERS *+     MOCLDY    66  63  88 NW3       30.04F
FRANKFORT +    PTCLDY   N/A N/A N/A W5        30.06F
GREENWOOD *+   MOCLDY    72  57  60 NW6       30.05S
INDIANAPOLIS   MOCLDY    69  59  70 W7        30.04S
6HR MIN TEMP:  69; 6HR MAX TEMP:  84;

-EAGLE CREEK   MOCLDY    70  60  70 NW8       30.04S
6HR MIN TEMP:  70; 6HR MAX TEMP:  84;

KOKOMO *+      PTCLDY    64  57  77 W6        30.04S
6HR MIN TEMP:  64; 6HR MAX TEMP:  84;

MARION +       MOCLDY    64  61  90 CALM      30.04S
MT COMFORT *+  MOCLDY    70  59  68 NW6       30.05S
SHELBYVILLE    MOCLDY    71  61  70 NW7       30.03S
6HR MIN TEMP:  71; 6HR MAX TEMP:  85;

ZIONSVILLE +   MOCLDY    67  60  78 W3        30.06S
6HR MIN TEMP:  67; 6HR MAX TEMP:  83;


$$

INZ033-034-041-042-049-050-058-059-300700-
EAST CENTRAL INDIANA

CITY           SKY/WX    TMP DP  RH WIND       PRES   REMARKS
MUNCIE         MOCLDY    69  60  73 NW7       30.03S
6HR MIN TEMP:  69; 6HR MAX TEMP:  84; 6HR PCP:  0.05;


$$

INZ060-061-067>069-081>083-085>088-300700-
SOUTHWEST INDIANA

CITY           SKY/WX    TMP DP  RH WIND       PRES   REMARKS
EVANSVILLE     MOCLDY    76  66  71 N6        30.06S
6HR MIN TEMP:  76; 6HR MAX TEMP:  85;

HUNTINGBURG *+ MOCLDY    75  63  64 N6        30.05S
6HR MIN TEMP:  75; 6HR MAX TEMP:  82;

WASHINGTON +   PTCLDY    69  64  82 NW6       30.05F
6HR MIN TEMP:  69; 6HR MAX TEMP:  82;


$$

INZ062-063-066-070>080-084-089>092-300700-
SOUTH CENTRAL AND SOUTHEAST INDIANA

CITY           SKY/WX    TMP DP  RH WIND       PRES   REMARKS
BLOOMINGTON    MOCLDY    71  62  73 NW3       30.06S
6HR MIN TEMP:  71; 6HR MAX TEMP:  83;

MADISON *+     CLOUDY    72  68  88 NW5       30.05S
NORTH VERNON + MOCLDY    73  66  78 NW6       30.04S
SEYMOUR +      MOCLDY    73  64  73 NW8       30.03S

$$



USA.gov is the U.S. government's official web portal to all federal, state and local government web resources and services.